OSCAR 7 1 07530U 74089B 09184.60866312 -.00000027 +00000-0 +10000-3 0 05201 2 07530 101.4258 208.6820 0011686 234.9434 125.0541 12.53575833584776 OSCAR 11 (UoSAT 2) 1 14781U 84021B 09184.71410781 +.00000184 +00000-0 +31681-4 0 09993 2 14781 098.1065 229.3547 0008046 285.9098 074.1195 14.79720090360277 EGS (AJISAI) 1 16908U 86061A 09184.90858023 -.00000083 +00000-0 +10000-3 0 09527 2 16908 050.0091 107.5884 0011239 259.6545 100.3023 12.44462479709688 TDRS 3 1 19548U 88091B 09183.93389824 -.00000200 00000-0 10000-3 0 2899 2 19548 011.8706 039.7596 0022471 323.5968 338.7469 01.00269152 63299 NAVSTAR 13 (USA 35) 1 19802U 89013A 09184.90001106 -.00000109 +00000-0 +10000-3 0 01010 2 19802 055.8256 304.3738 0048968 101.1326 259.4183 01.85321073144405 TDRS 4 1 19883U 89021B 09184.68923262 -.00000288 +00000-0 +10000-3 0 06124 2 19883 010.5431 051.6347 0001617 353.6813 078.8499 01.00272806246884 NAVSTAR 14 (USA 38) 1 20061U 89044A 09183.99027061 -.00000066 00000-0 10000-3 0 7163 2 20061 053.9735 100.8264 0020775 080.1048 280.1192 01.88857429144842 NAVSTAR 15 (USA 42) 1 20185U 89064A 09185.35520508 -.00000103 00000-0 10000-3 0 5270 2 20185 055.5901 302.0345 0014055 232.0658 127.8126 01.86084794140987 NAVSTAR 16 (USA 47) 1 20302U 89085A 09184.52541944 -.00000082 +00000-0 +10000-3 0 06872 2 20302 055.2086 043.2087 0007921 341.5772 018.4519 01.89423543141235 NAVSTAR 17 (USA 49) 1 20361U 89097A 09183.44285888 .00000048 00000-0 10000-3 0 2037 2 20361 054.2280 231.0714 0018190 222.7122 137.2271 01.89175139132171 OSCAR 14 (UoSAT 3) 1 20437U 90005B 09184.83290357 -.00000011 +00000-0 +11582-4 0 09634 2 20437 098.3422 142.3768 0011197 114.5641 245.6715 14.31546789015439 OSCAR 16 (PACSAT) 1 20439U 90005D 09184.83576558 .00000022 00000-0 23415-4 0 6429 2 20439 098.2794 152.4805 0011767 118.9882 241.2486 14.31827798 15534 OSCAR 19 (LUSAT) 1 20442U 90005G 09184.68040879 .00000003 00000-0 16141-4 0 5604 2 20442 098.2421 159.5313 0012865 116.4312 243.8192 14.32062964 15672 NAVSTAR 18 (USA 50) 1 20452U 90008A 09184.85660024 -.00000106 +00000-0 +10000-3 0 01223 2 20452 056.5121 350.6255 0010363 189.1190 170.8668 01.89596282138843 JAS 1B (FUJI 2) 1 20480U 90013C 09184.78905774 -.00000023 00000-0 13872-4 0 1832 2 20480 099.0713 102.4038 0540652 132.7956 231.9945 12.83361439909032 NAVSTAR 20 (USA 63) 1 20724U 90068A 09184.23721673 -.00000095 00000-0 10000-3 0 1813 2 20724 054.9713 292.4288 0046952 233.6034 125.9792 01.87181520134004 FENGYUN 1B 1 20788U 90081A 09184.95984715 +.00000120 +00000-0 +10748-3 0 07290 2 20788 099.1523 201.7820 0015062 278.7121 081.2333 14.02356255963728 NAVSTAR 21 (USA 64) 1 20830U 90088A 09184.41810146 .00000066 00000-0 10000-3 0 1409 2 20830 054.2136 225.9230 0017790 153.7462 206.4269 01.87754348136591 NAVSTAR 22 (USA 66) 1 20959U 90103A 09184.53978248 -.00000068 +00000-0 +10000-3 0 03135 2 20959 055.2029 282.3350 0134110 293.7703 064.8636 02.00549708136237 COSMOS 2123 1 21089U 91007A 09184.85947915 +.00000020 +00000-0 +56908-5 0 01994 2 21089 082.9214 254.2586 0027715 284.3971 075.4106 13.74486859923480 NOAA 12 1 21263U 91032A 09184.95210728 +.00000005 +00000-0 +21026-4 0 01908 2 21263 098.7715 193.0185 0013517 095.8496 264.4225 14.25583860942785 NAVSTAR 23 (USA 71) 1 21552U 91047A 09184.24758265 .00000071 00000-0 10000-3 0 3319 2 21552 054.4636 220.3510 0067658 321.4813 038.1154 02.00563017131812 OSCAR 22 (UoSAT 5) 1 21575U 91050B 09184.79412362 -.00000024 +00000-0 +63755-5 0 05883 2 21575 098.4448 133.4762 0006947 337.1606 022.9260 14.39677693943098 TDRS 5 1 21639U 91054B 09184.33875291 .00000098 00000-0 10000-3 0 4716 2 21639 009.8942 055.4225 0010373 338.1279 202.2011 01.00268539 65626 METEOR 3-5 1 21655U 91056A 09184.93844572 +.00000051 +00000-0 +10000-3 0 07419 2 21655 082.5519 194.6603 0014070 133.9313 226.2971 13.17019403859836 NAVSTAR 24 (USA 79) 1 21890U 92009A 09182.75542667 -.00000086 00000-0 10000-3 0 3333 2 21890 055.5810 032.1372 0115243 290.6178 068.1974 02.00566740127165 NAVSTAR 26 (USA 83) 1 22014U 92039A 09184.43764678 -.00000105 00000-0 10000-3 0 2308 2 22014 056.8800 340.6813 0202154 058.2032 303.7460 02.00421479117963 OSCAR 23 (KITSAT 1) 1 22077U 92052B 09184.69948978 -.00000037 +00000-0 +10000-3 0 07890 2 22077 066.0876 292.0680 0015338 275.6861 084.2410 12.86448718793642 NAVSTAR 27 (USA 84) 1 22108U 92058A 09183.94384495 -.00000080 00000-0 10000-3 0 1371 2 22108 055.8462 034.1806 0215001 269.6026 087.9868 02.00551681123131 NAVSTAR 28 (USA 85) 1 22231U 92079A 09183.54831086 -.00000103 00000-0 10000-3 0 1017 2 22231 056.7639 341.4304 0076034 255.8319 103.3208 02.00557866121707 NAVSTAR 29 (USA 87) 1 22275U 92089A 09184.56016766 -.00000112 00000-0 10000-3 0 9152 2 22275 056.6898 341.5033 0038206 333.3353 026.4654 01.88249233120395 TDRS 6 1 22314U 93003B 09184.26321353 +.00000086 +00000-0 +10000-3 0 04975 2 22314 009.2453 058.4889 0007145 000.1346 146.2431 01.00276984060341 NAVSTAR 30 (USA 88) 1 22446U 93007A 09184.00826526 -.00000064 00000-0 10000-3 0 9869 2 22446 053.9172 102.3976 0024245 286.5445 073.1771 01.88093038117562 NAVSTAR 31 (USA 90) 1 22581U 93017A 09184.83923554 +.00000040 +00000-0 +10000-3 0 07153 2 22581 053.5053 159.8096 0004719 303.6693 056.2573 01.88946495117674 NAVSTAR 32 (USA 91) 1 22657U 93032A 09184.20330318 .00000033 00000-0 10000-3 0 2602 2 22657 053.6129 153.3915 0103065 278.4414 080.3677 02.00571746114494 NAVSTAR 33 (USA 92) 1 22700U 93042A 09184.47213777 -.00000077 +00000-0 +10000-3 0 05006 2 22700 055.9599 035.5463 0204215 085.4500 276.9379 02.00568695117303 NAVSTAR 34 (USA 94) 1 22779U 93054A 09184.06559004 -.00000071 00000-0 10000-3 0 252 2 22779 054.2356 091.9123 0095795 075.4888 285.5784 02.00578299116058 METEOR 2-21 1 22782U 93055A 09184.95601092 +.00000057 +00000-0 +38143-4 0 05022 2 22782 082.5469 168.7065 0021060 302.5400 057.3729 13.83636117799921 KITSAT B 1 22825U 93061C 09183.96697341 -.00000045 00000-0 -92352-6 0 2816 2 22825 098.4362 136.8935 0007968 212.1306 147.9409 14.29268326822169 POSAT 1 1 22826U 93061D 09184.72432886 -.00000008 +00000-0 +13400-4 0 00106 2 22826 098.4302 138.3692 0008358 206.7806 153.2946 14.29520607822371 ITAMSAT 1 22828U 93061F 09184.75514860 -.00000013 +00000-0 +11407-4 0 02163 2 22828 098.4237 138.3007 0010028 179.8474 180.2707 14.29820304790655 NAVSTAR 35 (USA 96) 1 22877U 93068A 09184.11083268 +.00000073 +00000-0 +10000-3 0 08064 2 22877 053.8710 217.7291 0085320 026.7730 333.7393 02.00553096114944 NAVSTAR 36 (USA 100) 1 23027U 94016A 09184.31444539 .00000034 00000-0 10000-3 0 8236 2 23027 053.5097 154.7941 0061930 283.3998 075.8815 02.00559871112259 RADIO ROSTO 1 23439U 94085A 09184.65375011 -.00000039 +00000-0 +10000-3 0 02368 2 23439 064.8165 238.1892 0148139 048.5195 312.8338 11.27553067597976 NOAA 14 1 23455U 94089A 09184.73148695 -.00000273 +00000-0 -12098-3 0 06763 2 23455 098.9084 262.3540 0010217 139.8783 220.3147 14.13763473748266 ORBCOMM FM 1 1 23545U 95017A 09184.97240851 +.00000128 +00000-0 +39639-4 0 02504 2 23545 069.9704 106.4134 0010783 224.1048 135.9232 14.61239228756523 ORBCOMM FM 2 1 23546U 95017B 09184.93586373 +.00000041 +00000-0 +22096-4 0 02999 2 23546 069.9732 108.4508 0010953 213.4180 146.6269 14.61191009756533 TDRS 7 1 23613U 95035B 09183.92682957 -.00000318 +00000-0 +10000-3 0 05506 2 23613 011.0689 048.0362 0005809 230.0937 103.3460 00.99440038051146 NAVSTAR 37 (USA 117) 1 23833U 96019A 09184.33066849 .00000025 00000-0 10000-3 0 155 2 23833 053.0821 150.9031 0118456 051.4378 309.5799 02.00567451 97235 NAVSTAR 38 (USA 126) 1 23953U 96041A 09184.25109407 -.00000064 00000-0 10000-3 0 4699 2 23953 054.8779 278.8305 0084669 033.3342 327.2276 02.00569941 95029 JAS 2 1 24278U 96046B 09184.71544051 -.00000055 00000-0 -17329-4 0 761 2 24278 098.5528 056.5292 0350171 307.6803 049.3051 13.52943513635984 NAVSTAR 39 (USA 128) 1 24320U 96056A 09184.60029157 -.00000067 +00000-0 +10000-3 0 02035 2 24320 054.5679 094.9949 0113400 081.6817 279.6062 02.00574172093690 FENGYUN 2A 1 24834U 97029A 09182.69007191 -.00000067 +00000-0 +10000-3 0 03892 2 24834 008.4275 062.4729 0095220 071.9216 289.0219 00.96050808043906 NAVSTAR 43 (USA 132) 1 24876U 97035A 09184.70013231 -.00000105 +00000-0 +10000-3 0 09856 2 24876 056.9982 340.8111 0038973 092.3002 268.1528 02.00562312087561 NAVSTAR 44 (USA 134) 1 25030U 97067A 09183.83175472 -.00000078 00000-0 10000-3 0 8918 2 25030 056.6689 041.0062 0106184 172.6182 187.5977 02.00567488 85447 ORBCOMM FM 8 1 25112U 97084A 09184.69928252 -.00001442 +00000-0 -45798-3 0 02750 2 25112 045.0225 279.8138 0010520 183.9635 176.1129 14.34380764602625 ORBCOMM FM 10 1 25113U 97084B 09184.73417886 -.00000093 +00000-0 +17106-4 0 00113 2 25113 045.0205 280.4409 0007314 161.4713 198.6401 14.34377762602624 ORBCOMM FM 11 1 25114U 97084C 09184.72550075 +.00000036 +00000-0 +62322-4 0 09453 2 25114 045.0198 280.1354 0007678 158.3194 201.7978 14.34377168602628 ORBCOMM FM 12 1 25115U 97084D 09184.70802767 -.00002712 +00000-0 -90554-3 0 09261 2 25115 045.0190 279.9670 0007629 173.5947 186.4982 14.34389101602623 ORBCOMM FM 9 1 25116U 97084E 09184.71673550 .00000098 00000-0 84288-4 0 957 2 25116 045.0214 280.2920 0006396 146.5582 213.5669 14.34378924602624 ORBCOMM FM 5 1 25117U 97084F 09184.75146318 -.00000038 00000-0 36467-4 0 310 2 25117 045.0221 280.4103 0003995 183.8991 176.1820 14.34379428602621 ORBCOMM FM 6 1 25118U 97084G 09184.67323224 -.00000113 00000-0 99416-5 0 9110 2 25118 045.0208 280.6571 0004018 192.0107 168.0645 14.34376545602617 ORBCOMM FM 7 1 25119U 97084H 09184.69083376 -.00000093 00000-0 16990-4 0 1859 2 25119 045.0219 280.7757 0005042 173.9839 186.1065 14.34381494602611 NOAA 15 1 25338U 98030A 09184.83714612 +.00000113 +00000-0 +67054-4 0 09929 2 25338 098.5841 173.6785 0010879 015.7860 344.3624 14.24770505579144 RESURS O1-N4 1 25394U 98043A 09184.74052744 -.00000013 +00000-0 +11912-4 0 02550 2 25394 098.3367 216.2442 0001784 131.2593 228.8740 14.24185101570758 TMSAT 1 25396U 98043C 09184.72414599 -.00000031 +00000-0 +42616-5 0 04435 2 25396 098.3312 211.8353 0002795 164.4867 195.6381 14.23779825570659 TECHSAT 1B 1 25397U 98043D 09184.59459565 +.00000097 +00000-0 +60831-4 0 09325 2 25397 098.3260 206.0559 0001108 155.5275 204.5953 14.23161129570463 ORBCOMM FM 17 1 25413U 98046A 09184.48415346 -.00000093 +00000-0 +18404-4 0 00613 2 25413 044.9968 186.1633 0000746 258.4078 101.6681 14.27538560569022 ORBCOMM FM 18 1 25414U 98046B 09184.41390581 .00000696 00000-0 33602-3 0 9983 2 25414 044.9954 186.2529 0002413 205.5669 154.5056 14.27614607569014 ORBCOMM FM 19 1 25415U 98046C 09184.49341057 -.00000170 +00000-0 -12519-4 0 00385 2 25415 044.9964 186.0759 0000696 302.1249 057.9524 14.27606101569025 ORBCOMM FM 20 1 25416U 98046D 09184.43384201 -.00000106 +00000-0 +13144-4 0 04802 2 25416 044.9951 186.5329 0001798 261.4621 098.6025 14.27613918568970 ORBCOMM FM 16 1 25417U 98046E 09184.44385752 .00000002 00000-0 56701-4 0 802 2 25417 044.9975 187.4113 0003030 233.1984 126.8588 14.27612569569012 ORBCOMM FM 15 1 25418U 98046F 09184.45348712 +.00000139 +00000-0 +11200-3 0 01333 2 25418 044.9994 187.5807 0001859 214.7290 145.3427 14.27594481569017 ORBCOMM FM 14 1 25419U 98046G 09184.46386059 .00000375 00000-0 20696-3 0 926 2 25419 044.9977 187.4820 0002559 256.3285 103.7278 14.27616666569019 ORBCOMM FM 13 1 25420U 98046H 09184.47384893 +.00000233 +00000-0 +14969-3 0 09741 2 25420 044.9996 187.7943 0001031 214.9964 145.0810 14.27613128569043 ORBCOMM FM 21 1 25475U 98053A 09184.66644413 -.00000247 00000-0 -42251-4 0 549 2 25475 045.0111 275.1861 0000751 004.1456 355.9389 14.28931033562177 ORBCOMM FM 22 1 25476U 98053B 09184.63150702 .00000189 00000-0 12874-3 0 7367 2 25476 045.0108 275.7349 0001401 152.3956 207.6937 14.28937263562156 ORBCOMM FM 23 1 25477U 98053C 09184.68976712 .00000023 00000-0 63507-4 0 393 2 25477 045.0100 275.2040 0001363 157.5543 202.5361 14.28941016562334 ORBCOMM FM 24 1 25478U 98053D 09184.67817148 -.00000286 +00000-0 -57649-4 0 06186 2 25478 045.0117 275.4735 0002172 174.0097 186.0775 14.28933023562315 ORBCOMM FM 25 1 25479U 98053E 09184.64297428 +.00000066 +00000-0 +80591-4 0 09142 2 25479 045.0110 275.0212 0002874 126.5050 233.6048 14.28939909562305 ORBCOMM FM 26 1 25480U 98053F 09184.69171230 +.00000096 +00000-0 +91826-4 0 09888 2 25480 045.0108 265.8915 0005636 121.4934 238.6451 14.29236763562408 ORBCOMM FM 27 1 25481U 98053G 09184.65467931 -.00000096 +00000-0 +16878-4 0 05310 2 25481 045.0103 274.6796 0001079 200.9553 159.1246 14.28932403562307 ORBCOMM FM 28 1 25482U 98053H 09184.65407382 -.00000140 00000-0 -59934-7 0 6365 2 25482 045.0107 247.8009 0002870 119.9207 240.1922 14.30066727562645 PAN SAT 1 25520U 98064B 09184.96245955 +.00000405 +00000-0 +10102-4 0 02819 2 25520 028.4594 142.5249 0005478 127.6450 232.4638 15.17352110591205 OSCAR 36 (UoSAT 12) 1 25693U 99021A 09184.77407056 -.00000168 +00000-0 -38702-5 0 09536 2 25693 064.5580 064.8867 0003390 228.8675 131.2092 14.78752228550292 FENGYUN 1C 1 25730U 99025A 09184.98307254 -.00000166 +00000-0 -72424-4 0 07976 2 25730 098.7545 154.6444 0020339 165.1753 195.0018 14.07905739522682 NAVSTAR 46 (USA 145) 1 25933U 99055A 09184.46988977 +.00000077 +00000-0 +10000-3 0 04443 2 25933 050.9576 205.1093 0092784 039.3799 321.3476 02.00561006071370 ORBCOMM FM 30 1 25980U 99065A 09184.68940020 -.00000209 00000-0 -27400-4 0 5776 2 25980 045.0337 079.4616 0003965 282.1273 077.9143 14.28826079499649 ORBCOMM FM 31 1 25981U 99065B 09184.67552994 -.00000035 +00000-0 +41038-4 0 06753 2 25981 045.0256 077.1669 0003730 290.0922 069.9531 14.28820124499638 ORBCOMM FM 32 1 25982U 99065C 09184.79311674 +.00000030 +00000-0 +65997-4 0 06085 2 25982 045.0230 076.5222 0006112 273.4533 086.5592 14.29309208499659 ORBCOMM FM 33 1 25983U 99065D 09184.82952901 -.00000338 00000-0 -78387-4 0 5735 2 25983 045.0315 078.3633 0003101 296.3272 063.7259 14.28709275499653 ORBCOMM FM 36 1 25984U 99065E 09184.73160033 +.00000265 +00000-0 +15889-3 0 05984 2 25984 045.0399 080.5812 0002063 135.2074 224.8935 14.28825124499649 ORBCOMM FM 35 1 25985U 99065F 09184.71761373 -.00000073 00000-0 25965-4 0 6321 2 25985 045.0423 081.4646 0002701 294.6947 065.3613 14.28824503499642 ORBCOMM FM 34 1 25986U 99065G 09184.70371442 -.00000229 00000-0 -35158-4 0 5918 2 25986 045.0406 081.0095 0002982 249.9538 110.0990 14.28831030499647 OPAL 1 26063U 00004C 09184.52731077 -.00000009 +00000-0 +17102-4 0 05479 2 26063 100.2127 334.0653 0036727 214.8880 144.9887 14.35867045494294 NAVSTAR 47 (USA 150) 1 26360U 00025A 09184.56853631 -.00000056 +00000-0 +10000-3 0 05388 2 26360 053.9440 276.0152 0036730 077.7276 282.7276 02.00573937067072 FENGYUN 2B 1 26382U 00032A 09182.06345247 -.00000353 +00000-0 +10000-3 0 01793 2 26382 004.3729 072.3046 0004222 202.3776 157.3784 01.00096164033005 CHAMP 1 26405U 00039B 09184.87837913 +.00007826 +00000-0 +33130-4 0 09107 2 26405 087.2235 306.7299 0003193 082.7467 277.4173 15.85082629512298 NAVSTAR 48 (USA 151) 1 26407U 00040A 09183.91205531 -.00000063 00000-0 10000-3 0 4832 2 26407 055.4057 099.2332 0151371 244.7832 113.6386 02.00566638 65738 NOAA 16 1 26536U 00055A 09184.79676445 -.00000066 +00000-0 -10594-4 0 04691 2 26536 099.1758 188.8641 0009724 230.8838 129.1466 14.12523019452641 SAUDISAT 1A 1 26545U 00057A 09184.76701707 -.00000083 00000-0 87477-5 0 2916 2 26545 064.5564 066.4849 0057359 275.5086 083.9495 14.80592501473651 TIUNGSAT 1 1 26548U 00057D 09184.62814086 -.00000060 +00000-0 +11293-4 0 04334 2 26548 064.5573 029.8487 0052073 271.0432 088.4711 14.83371739474393 SAUDISAT 1B 1 26549U 00057E 09184.74224925 -.00000186 +00000-0 -44502-5 0 03705 2 26549 064.5579 083.2951 0061098 279.5480 079.8701 14.79448067473311 NAVSTAR 49 (USA 154) 1 26605U 00071A 09184.50703309 -.00000106 +00000-0 +10000-3 0 04881 2 26605 056.6276 339.6883 0047150 237.9961 121.5398 02.00571007063344 NAVSTAR 50 (USA 156) 1 26690U 01004A 09184.87874755 -.00000060 +00000-0 +10000-3 0 03761 2 26690 053.9639 279.0884 0107114 222.9121 136.2882 02.00571504061765 PICOSAT 9 1 26930U 01043B 09184.78099223 -.00000095 +00000-0 -45216-5 0 01889 2 26930 067.0025 359.6951 0001823 253.3291 106.7610 14.30047066405112 PCSAT 1 26931U 01043C 09184.79554315 -.00000311 +00000-0 -88971-4 0 02087 2 26931 067.0530 021.5566 0005749 272.5310 087.5112 14.29558801404953 SAPPHIRE 1 26932U 01043D 09184.96833678 -.00000045 +00000-0 +14880-4 0 02158 2 26932 067.0563 021.0741 0003909 274.1552 085.9103 14.29611540405023 FENGYUN 1D 1 27431U 02024B 09184.61751458 -.00000105 +00000-0 -36129-4 0 06141 2 27431 098.6261 173.6547 0015573 011.4288 348.7212 14.09281274367123 NOAA 17 1 27453U 02032A 09184.72273300 -.00000123 +00000-0 -35039-4 0 04722 2 27453 098.4829 243.2228 0012830 077.7227 282.5396 14.24073182365104 MOZHAYETS 1 27560U 02054B 09184.77473146 -.00000002 +00000-0 +94569-5 0 09870 2 27560 097.9352 026.7569 0043384 158.3283 201.9756 14.55031092349167 SAUDISAT 1C 1 27607U 02058C 09184.77121289 +.00000003 +00000-0 +22570-4 0 09269 2 27607 064.5603 334.7212 0065229 201.8358 157.9932 14.71445017351112 NAVSTAR 51 (USA 166) 1 27663U 03005A 09184.72939007 -.00000063 +00000-0 +10000-3 0 07421 2 27663 055.5092 098.7354 0054086 338.7622 021.0099 02.00575746047112 NAVSTAR 52 (USA 168) 1 27704U 03010A 09184.29221768 +.00000071 +00000-0 +10000-3 0 06363 2 27704 053.5078 218.4749 0155421 212.7397 146.3650 02.00570740045890 NAVSTAR 53 (USA 175) 1 28129U 03058A 09183.42400754 -.00000072 +00000-0 +10000-3 0 02576 2 28129 053.8309 279.4670 0052995 252.4132 107.0426 02.00565104040586 NAVSTAR 54 (USA 177) 1 28190U 04009A 09184.36899895 .00000049 00000-0 10000-3 0 1957 2 28190 054.8634 161.6770 0058293 338.6507 021.0823 02.00570059 38778 NAVSTAR 55 (USA 178) 1 28361U 04023A 09183.65647285 -.00000107 00000-0 10000-3 0 212 2 28361 055.5943 337.8201 0062107 168.5043 191.6377 02.00572442 36841 APRIZESAT 2 (LATINSAT D) 1 28366U 04025A 09184.87162165 -.00000013 00000-0 89645-5 0 4025 2 28366 098.0853 180.6138 0110534 117.0256 244.2261 14.35575508262625 UNISAT 3 1 28373U 04025H 09182.69540736 -.00000044 +00000-0 -52609-6 0 04122 2 28373 098.0375 198.9699 0072302 060.7203 300.1176 14.43327750264231 AMSAT ECHO 1 28375U 04025K 09184.56410446 -.00000004 +00000-0 +11289-4 0 04296 2 28375 098.0514 193.2116 0085134 075.1505 285.9094 14.40646006263314 NAVSTAR 56 (USA 180) 1 28474U 04045A 09184.15108062 +.00000075 +00000-0 +10000-3 0 08998 2 28474 053.9267 216.6910 0090536 164.6837 195.6628 02.00563744034210 HAMSAT 1 28650U 05017B 09184.79836274 +.00000090 +00000-0 +17986-4 0 02641 2 28650 097.7416 245.8305 0026554 337.8395 022.1689 14.81598145225108 NAVSTAR 57 (USA 183) 1 28874U 05038A 09184.00451783 .00000048 00000-0 10000-3 0 1588 2 28874 054.9959 158.4843 0046175 212.2725 147.4203 02.00560937 27630 SSETI-EXPRESS 1 28894U 05043E 09184.72465627 +.00000012 +00000-0 +12083-4 0 05036 2 28894 098.0552 074.5772 0016772 301.0075 058.9482 14.59674031196263 MOZ.5/SAFIR/RUBIN 5/SL-8 1 28898U 05043G 09184.75588065 -.00000022 00000-0 50833-5 0 3570 2 28898 098.0431 071.1919 0018010 311.6545 048.3116 14.58567888196116 SUITSAT (Decayed 2006-09-07) 1 28933U 05035C 06250.56263144 .13300754 00000-0 18638-3 0 4012 2 28933 051.6150 101.2534 0006572 313.0977 047.0289 16.48585101 34276 CUTE 1.7 1 28941U 06005C 09185.25881009 .00052665 35738-5 16180-3 0 2235 2 28941 098.1372 002.9274 0078681 068.6184 292.3417 15.86884460189953 HITSAT (Decayed 2008-06-18) 1 29484U 06041F 08170.27591928 .21901596 31637-5 19690-3 0 4662 2 29484 098.2496 292.5583 0013872 275.6258 084.5236 16.51113477 98738 NAVSTAR 58 (USA 190) 1 29486U 06042A 09184.11633751 -.00000079 00000-0 10000-3 0 4783 2 29486 055.7735 037.3868 0072311 294.0229 065.2728 02.00557028 20337 NAVSTAR 59 (USA 192) 1 29601U 06052A 09184.06407853 -.00000065 00000-0 10000-3 0 4986 2 29601 055.4194 097.7879 0034798 315.9822 043.7521 02.00567786 19245 RAFT (Decayed 2007-05-30) 1 29661U 06055C 07150.05824307 .13324117 12618-4 10400-3 0 3000 2 29661 051.6186 176.5045 0007204 190.7749 188.7342 16.52052832 25544 MARSCOM (Decayed 2007-05-06) 1 29662U 06055D 07126.39603970 .07031946 12599-4 11450-3 0 2632 2 29662 051.6121 302.3682 0004459 252.1654 110.7411 16.47981436 21652 ANDE MAA SPHERE 1 (Decayed 2007-12-25) 1 29664U 06055F 07359.16654419 .14620719 12705-4 12723-3 0 7381 2 29664 051.6179 150.0690 0003189 248.8461 111.8136 16.51627846 58777 ANDE FCAL SPHERE 2 (Decayed 2008-05-25) 1 29667U 06055J 08146.34060426 .11864717 12752-4 73624-4 0 9790 2 29667 051.6107 065.3702 0009039 260.8350 099.5042 16.53464210 82911 PEHUENSAT 1 1 29712U 07001D 09185.25013746 .00000470 00000-0 67930-4 0 6212 2 29712 097.8278 241.2514 0013162 216.5495 143.4818 14.80590296133996 NAVSTAR 60 (USA 196) 1 32260U 07047A 09184.35987302 -.00000110 +00000-0 +00000-0 0 02671 2 32260 054.7917 336.6214 0015789 324.3511 035.5363 02.00569173012643 NAVSTAR 61 (USA 199) 1 32384U 07062A 09184.19217031 .00000046 00000-0 10000-3 0 2910 2 32384 055.0068 158.9494 0036512 282.9831 076.5897 02.00564587 11366 NAVSTAR 62 (USA 201) 1 32711U 08012A 09184.28186399 -.00000079 +00000-0 +10000-3 0 01839 2 32711 055.4535 037.4879 0026527 169.7666 190.3423 02.00564760009577 DELFI C3 1 32789U 08021G 09184.77127532 .00000382 00000-0 55203-4 0 4106 2 32789 097.9444 248.6884 0015511 342.3136 017.7530 14.81736097 63900